Location: Brady Lake
(41.1624°N, 81.3143°W)
Time: 21:39:34
(UTC+00:00)

Hubble Space Telescope - Visible Passes

Search period start: 08 August 2022 00:00
Search period end: 18 August 2022 00:00
Orbit: 532 x 535 km, 28.5° (Epoch: 07 August)

Date Brightness Start Highest point End Pass type
(mag) Time Alt. Az. Time Alt. Az. Time Alt. Az.
08 Aug 2.9 02:08:51 10° SSW 02:10:01 13° S 02:10:01 13° S visible
09 Aug 2.7 01:56:37 10° SSW 01:58:43 14° S 01:58:43 14° S visible
10 Aug 2.7 01:44:26 10° SSW 01:46:35 14° S 01:47:20 13° SSE visible
11 Aug 2.8 01:32:19 10° SSW 01:34:26 14° S 01:35:54 12° SSE visible
12 Aug 2.9 01:20:15 10° SW 01:22:16 13° S 01:24:16 10° SSE visible
13 Aug 3.0 01:08:16 10° SSW 01:10:05 13° S 01:11:56 10° SSE visible
14 Aug 3.1 00:56:23 10° SSW 00:57:55 12° S 00:59:28 10° SSE visible
